Location: Bear Valley Community Church - Hurst
(32.8460°N, 97.1828°W)
Time: 07:51:35
(UTC+00:00)

Cosmos 1328 Rocket - Pass Details

Date: 12 July 2022
Orbit: 600 x 627 km, 82.5° (Epoch: 14 August)

Event Time Altitude Azimuth Distance (km) Brightness Sun altitude
Rises 07:29:51 0° 359° (N) 2,883 8.0 -33.6°
Reaches altitude 10° 07:32:09 10° 5° (N) 1,970 6.9 -33.5°
Enters shadow 07:34:03 24° 16° (NNE) 1,263 5.7 -33.4°
